Time,TemperatureF,DewpointF,PressureIn,WindDirection,WindDirectionDegrees,WindSpeedMPH,WindSpeedGustMPH,Humidity,HourlyPrecipIn,Conditions,Clouds,dailyrainin,SoftwareType,DateUTC
2013-02-01 00:02:00,1.0,-5.0,-100.00,North,10,17.0,24.0,72,-99.99,,,-99.99,,2013-02-01 06:02:00,
2013-02-01 00:11:00,1.0,-5.0,-100.00,North,5,18.0,26.0,72,-99.99,,,-99.99,,2013-02-01 06:11:00,
2013-02-01 00:22:00,1.0,-5.0,-100.00,North,5,16.0,24.0,73,-99.99,,,-99.99,,2013-02-01 06:22:00,
2013-02-01 00:32:00,1.0,-5.0,-100.00,North,5,16.0,24.0,73,-99.99,,,-99.99,,2013-02-01 06:32:00,
2013-02-01 00:42:00,1.0,-6.0,-100.00,North,5,19.0,28.0,73,-99.99,,,-99.99,,2013-02-01 06:42:00,
2013-02-01 00:52:00,1.0,-6.0,-100.00,North,5,16.0,24.0,72,-99.99,,,-99.99,,2013-02-01 06:52:00,
2013-02-01 01:02:00,1.0,-6.0,-100.00,North,5,16.0,24.0,72,-99.99,,,-99.99,,2013-02-01 07:02:00,
2013-02-01 01:12:00,1.0,-6.0,-100.00,North,10,18.0,24.0,72,-99.99,,,-99.99,,2013-02-01 07:12:00,
2013-02-01 01:22:00,1.0,-6.0,-100.00,North,10,16.0,26.0,71,-99.99,,,-99.99,,2013-02-01 07:22:00,
2013-02-01 01:32:00,1.0,-6.0,-100.00,North,10,16.0,26.0,71,-99.99,,,-99.99,,2013-02-01 07:32:00,
2013-02-01 01:42:00,0.0,-7.0,-100.00,North,10,16.0,26.0,71,-99.99,,,-99.99,,2013-02-01 07:42:00,
2013-02-01 01:52:00,0.0,-7.0,-100.00,North,10,15.0,26.0,71,-99.99,,,-99.99,,2013-02-01 07:52:00,
2013-02-01 02:01:00,0.0,-7.0,-100.00,North,10,15.0,26.0,71,-99.99,,,-99.99,,2013-02-01 08:01:00,
2013-02-01 02:11:00,0.0,-7.0,-100.00,North,10,17.0,26.0,71,-99.99,,,-99.99,,2013-02-01 08:11:00,
2013-02-01 02:21:00,0.0,-7.0,-100.00,North,10,18.0,27.0,71,-99.99,,,-99.99,,2013-02-01 08:21:00,
2013-02-01 02:32:00,0.0,-7.0,-100.00,North,10,18.0,27.0,71,-99.99,,,-99.99,,2013-02-01 08:32:00,
2013-02-01 02:42:00,0.0,-7.0,-100.00,North,10,16.0,21.0,72,-99.99,,,-99.99,,2013-02-01 08:42:00,
2013-02-01 02:52:00,0.0,-7.0,-100.00,North,10,21.0,28.0,71,-99.99,,,-99.99,,2013-02-01 08:52:00,
2013-02-01 03:01:00,0.0,-7.0,-100.00,North,10,21.0,28.0,71,-99.99,,,-99.99,,2013-02-01 09:01:00,
2013-02-01 03:11:00,0.0,-7.0,-100.00,North,10,20.0,26.0,72,-99.99,,,-99.99,,2013-02-01 09:11:00,
2013-02-01 03:21:00,0.0,-7.0,-100.00,NNE,15,19.0,28.0,72,-99.99,,,-99.99,,2013-02-01 09:21:00,
2013-02-01 03:32:00,0.0,-7.0,-100.00,NNE,15,19.0,28.0,72,-99.99,,,-99.99,,2013-02-01 09:32:00,
2013-02-01 03:42:00,0.0,-7.0,-100.00,NNE,15,19.0,28.0,72,-99.99,,,-99.99,,2013-02-01 09:42:00,
2013-02-01 03:52:00,-1.0,-7.0,-100.00,NNE,15,16.0,26.0,73,-99.99,,,-99.99,,2013-02-01 09:52:00,
2013-02-01 04:01:00,-1.0,-7.0,-100.00,NNE,15,16.0,26.0,73,-99.99,,,-99.99,,2013-02-01 10:01:00,
2013-02-01 04:11:00,-1.0,-7.0,-100.00,NNE,15,19.0,28.0,73,-99.99,,,-99.99,,2013-02-01 10:11:00,
2013-02-01 04:21:00,-1.0,-8.0,-100.00,NNE,15,14.0,22.0,73,-99.99,,,-99.99,,2013-02-01 10:21:00,
2013-02-01 04:32:00,-1.0,-8.0,-100.00,NNE,15,14.0,22.0,73,-99.99,,,-99.99,,2013-02-01 10:32:00,
2013-02-01 04:42:00,-1.0,-8.0,-100.00,North,10,19.0,26.0,73,-99.99,,,-99.99,,2013-02-01 10:42:00,
2013-02-01 04:53:00,-1.0,-8.0,-100.00,North,10,20.0,25.0,73,-99.99,,,-99.99,,2013-02-01 10:53:00,
2013-02-01 05:02:00,-1.0,-8.0,-100.00,North,10,20.0,25.0,73,-99.99,,,-99.99,,2013-02-01 11:02:00,
2013-02-01 05:11:00,-1.0,-8.0,-100.00,North,10,15.0,21.0,73,-99.99,,,-99.99,,2013-02-01 11:11:00,
2013-02-01 05:22:00,-1.0,-8.0,-100.00,North,10,12.0,21.0,73,-99.99,,,-99.99,,2013-02-01 11:22:00,
2013-02-01 05:32:00,-2.0,-8.0,-100.00,North,10,14.0,18.0,73,-99.99,,,-99.99,,2013-02-01 11:32:00,
2013-02-01 05:42:00,-2.0,-8.0,-100.00,North,10,14.0,18.0,73,-99.99,,,-99.99,,2013-02-01 11:42:00,
2013-02-01 05:53:00,-2.0,-8.0,-100.00,North,10,14.0,20.0,74,-99.99,,,-99.99,,2013-02-01 11:53:00,
2013-02-01 06:02:00,-2.0,-8.0,-100.00,North,10,14.0,20.0,74,-99.99,,,-99.99,,2013-02-01 12:02:00,
2013-02-01 06:12:00,-2.0,-8.0,-100.00,North,10,14.0,22.0,74,-99.99,,,-99.99,,2013-02-01 12:12:00,
2013-02-01 06:22:00,-2.0,-8.0,-100.00,North,10,14.0,20.0,74,-99.99,,,-99.99,,2013-02-01 12:22:00,
2013-02-01 06:32:00,-2.0,-8.0,-100.00,North,10,11.0,19.0,74,-99.99,,,-99.99,,2013-02-01 12:32:00,
2013-02-01 06:42:00,-2.0,-8.0,-100.00,North,10,11.0,19.0,74,-99.99,,,-99.99,,2013-02-01 12:42:00,
2013-02-01 06:52:00,-2.0,-8.0,-100.00,North,10,10.0,23.0,74,-99.99,,,-99.99,,2013-02-01 12:52:00,
2013-02-01 07:02:00,-2.0,-8.0,-100.00,North,10,10.0,23.0,74,-99.99,,,-99.99,,2013-02-01 13:02:00,
2013-02-01 07:11:00,-2.0,-9.0,-100.00,North,10,14.0,18.0,74,-99.99,,,-99.99,,2013-02-01 13:11:00,
2013-02-01 07:22:00,-2.0,-9.0,-100.00,North,10,14.0,19.0,74,-99.99,,,-99.99,,2013-02-01 13:22:00,
2013-02-01 07:32:00,-2.0,-9.0,-100.00,North,10,14.0,19.0,74,-99.99,,,-99.99,,2013-02-01 13:32:00,
2013-02-01 07:42:00,-3.0,-9.0,-100.00,North,10,16.0,19.0,74,-99.99,,,-99.99,,2013-02-01 13:42:00,
2013-02-01 07:53:00,-3.0,-9.0,-100.00,North,10,14.0,20.0,73,-99.99,,,-99.99,,2013-02-01 13:53:00,
2013-02-01 08:03:00,-3.0,-9.0,-100.00,North,10,14.0,20.0,73,-99.99,,,-99.99,,2013-02-01 14:03:00,
2013-02-01 08:11:00,-2.0,-9.0,-100.00,North,10,14.0,19.0,73,-99.99,,,-99.99,,2013-02-01 14:11:00,
2013-02-01 08:21:00,-2.0,-9.0,-100.00,North,10,12.0,18.0,73,-99.99,,,-99.99,,2013-02-01 14:21:00,
2013-02-01 08:32:00,-2.0,-9.0,-100.00,North,10,12.0,18.0,73,-99.99,,,-99.99,,2013-02-01 14:32:00,
2013-02-01 08:42:00,-1.0,-8.0,-100.00,North,10,14.0,20.0,73,-99.99,,,-99.99,,2013-02-01 14:42:00,
2013-02-01 08:53:00,-1.0,-8.0,-100.00,North,10,11.0,21.0,71,-99.99,,,-99.99,,2013-02-01 14:53:00,
2013-02-01 09:02:00,-1.0,-8.0,-100.00,North,10,11.0,21.0,71,-99.99,,,-99.99,,2013-02-01 15:02:00,
2013-02-01 09:12:00,0.0,-8.0,-100.00,North,10,10.0,15.0,70,-99.99,,,-99.99,,2013-02-01 15:12:00,
2013-02-01 09:22:00,0.0,-8.0,-100.00,North,10,14.0,20.0,69,-99.99,,,-99.99,,2013-02-01 15:22:00,
2013-02-01 09:33:00,0.0,-8.0,-100.00,North,10,14.0,20.0,69,-99.99,,,-99.99,,2013-02-01 15:33:00,
2013-02-01 09:42:00,0.0,-8.0,-100.00,North,5,11.0,17.0,68,-99.99,,,-99.99,,2013-02-01 15:42:00,
2013-02-01 09:52:00,1.0,-7.0,-100.00,North,10,12.0,16.0,69,-99.99,,,-99.99,,2013-02-01 15:52:00,
2013-02-01 10:03:00,1.0,-7.0,-100.00,North,10,12.0,16.0,69,-99.99,,,-99.99,,2013-02-01 16:03:00,
2013-02-01 10:11:00,1.0,-7.0,-100.00,North,10,14.0,18.0,69,-99.99,,,-99.99,,2013-02-01 16:11:00,
2013-02-01 10:22:00,1.0,-7.0,-100.00,North,10,10.0,19.0,69,-99.99,,,-99.99,,2013-02-01 16:22:00,
2013-02-01 10:33:00,1.0,-7.0,-100.00,North,10,10.0,19.0,69,-99.99,,,-99.99,,2013-02-01 16:33:00,
2013-02-01 10:43:00,2.0,-6.0,-100.00,North,10,8.0,17.0,68,-99.99,,,-99.99,,2013-02-01 16:43:00,
2013-02-01 10:52:00,2.0,-6.0,-100.00,North,10,9.0,16.0,67,-99.99,,,-99.99,,2013-02-01 16:52:00,
2013-02-01 11:02:00,2.0,-6.0,-100.00,North,10,9.0,16.0,67,-99.99,,,-99.99,,2013-02-01 17:02:00,
2013-02-01 11:12:00,3.0,-6.0,-100.00,North,10,12.0,17.0,67,-99.99,,,-99.99,,2013-02-01 17:12:00,
2013-02-01 11:22:00,4.0,-5.0,-100.00,North,10,10.0,14.0,66,-99.99,,,-99.99,,2013-02-01 17:22:00,
2013-02-01 11:32:00,4.0,-5.0,-100.00,North,10,10.0,14.0,66,-99.99,,,-99.99,,2013-02-01 17:32:00,
2013-02-01 11:42:00,4.0,-4.0,-100.00,North,10,14.0,17.0,67,-99.99,,,-99.99,,2013-02-01 17:42:00,
2013-02-01 11:53:00,4.0,-4.0,-100.00,North,10,11.0,18.0,67,-99.99,,,-99.99,,2013-02-01 17:53:00,
2013-02-01 12:03:00,4.0,-4.0,-100.00,North,10,11.0,18.0,67,-99.99,,,-99.99,,2013-02-01 18:03:00,
2013-02-01 12:12:00,4.0,-4.0,-100.00,North,10,13.0,22.0,67,-99.99,,,-99.99,,2013-02-01 18:12:00,
2013-02-01 12:22:00,5.0,-4.0,-100.00,North,10,13.0,18.0,66,-99.99,,,-99.99,,2013-02-01 18:22:00,
2013-02-01 12:32:00,5.0,-4.0,-100.00,North,10,14.0,24.0,66,-99.99,,,-99.99,,2013-02-01 18:32:00,
2013-02-01 12:42:00,5.0,-4.0,-100.00,North,10,14.0,24.0,66,-99.99,,,-99.99,,2013-02-01 18:42:00,
2013-02-01 12:53:00,6.0,-3.0,-100.00,NNE,15,15.0,26.0,66,-99.99,,,-99.99,,2013-02-01 18:53:00,
2013-02-01 13:02:00,6.0,-3.0,-100.00,NNE,15,15.0,26.0,66,-99.99,,,-99.99,,2013-02-01 19:02:00,
2013-02-01 13:12:00,6.0,-3.0,-100.00,North,10,14.0,25.0,66,-99.99,,,-99.99,,2013-02-01 19:12:00,
2013-02-01 13:21:00,7.0,-2.0,-100.00,North,10,14.0,21.0,66,-99.99,,,-99.99,,2013-02-01 19:21:00,
2013-02-01 13:32:00,7.0,-2.0,-100.00,North,10,14.0,21.0,66,-99.99,,,-99.99,,2013-02-01 19:32:00,
2013-02-01 13:42:00,7.0,-2.0,-100.00,North,5,14.0,21.0,66,-99.99,,,-99.99,,2013-02-01 19:42:00,
2013-02-01 13:52:00,7.0,-2.0,-100.00,North,10,14.0,19.0,65,-99.99,,,-99.99,,2013-02-01 19:52:00,
2013-02-01 14:02:00,7.0,-2.0,-100.00,North,10,14.0,19.0,65,-99.99,,,-99.99,,2013-02-01 20:02:00,
2013-02-01 14:11:00,8.0,-1.0,-100.00,North,10,14.0,21.0,66,-99.99,,,-99.99,,2013-02-01 20:11:00,
2013-02-01 14:21:00,8.0,-1.0,-100.00,North,10,15.0,21.0,65,-99.99,,,-99.99,,2013-02-01 20:21:00,
2013-02-01 14:32:00,8.0,-1.0,-100.00,North,10,15.0,21.0,65,-99.99,,,-99.99,,2013-02-01 20:32:00,
2013-02-01 14:42:00,9.0,0.0,-100.00,North,5,13.0,22.0,66,-99.99,,,-99.99,,2013-02-01 20:42:00,
2013-02-01 14:52:00,9.0,-1.0,-100.00,North,5,14.0,21.0,64,-99.99,,,-99.99,,2013-02-01 20:52:00,
2013-02-01 15:02:00,9.0,-1.0,-100.00,North,5,14.0,21.0,64,-99.99,,,-99.99,,2013-02-01 21:02:00,
2013-02-01 15:12:00,9.0,-1.0,-100.00,North,5,10.0,17.0,63,-99.99,,,-99.99,,2013-02-01 21:12:00,
2013-02-01 15:21:00,10.0,0.0,-100.00,North,5,9.0,15.0,63,-99.99,,,-99.99,,2013-02-01 21:21:00,
2013-02-01 15:32:00,10.0,-1.0,-100.00,North,5,13.0,17.0,62,-99.99,,,-99.99,,2013-02-01 21:32:00,
2013-02-01 15:42:00,10.0,-1.0,-100.00,North,5,13.0,17.0,62,-99.99,,,-99.99,,2013-02-01 21:42:00,
2013-02-01 15:52:00,10.0,0.0,-100.00,North,10,14.0,20.0,63,-99.99,,,-99.99,,2013-02-01 21:52:00,
2013-02-01 16:02:00,10.0,0.0,-100.00,North,10,14.0,20.0,63,-99.99,,,-99.99,,2013-02-01 22:02:00,
2013-02-01 16:11:00,10.0,0.0,-100.00,North,10,13.0,19.0,62,-99.99,,,-99.99,,2013-02-01 22:11:00,
2013-02-01 16:21:00,10.0,0.0,-100.00,North,10,14.0,20.0,62,-99.99,,,-99.99,,2013-02-01 22:21:00,
2013-02-01 16:32:00,10.0,0.0,-100.00,North,10,14.0,20.0,62,-99.99,,,-99.99,,2013-02-01 22:32:00,
2013-02-01 16:42:00,10.0,0.0,-100.00,North,10,15.0,19.0,62,-99.99,,,-99.99,,2013-02-01 22:42:00,
2013-02-01 16:52:00,11.0,0.0,-100.00,North,10,13.0,19.0,62,-99.99,,,-99.99,,2013-02-01 22:52:00,
2013-02-01 17:01:00,11.0,0.0,-100.00,North,10,13.0,19.0,62,-99.99,,,-99.99,,2013-02-01 23:01:00,
2013-02-01 17:11:00,10.0,0.0,-100.00,North,10,14.0,21.0,64,-99.99,,,-99.99,,2013-02-01 23:11:00,
2013-02-01 17:21:00,10.0,0.0,-100.00,North,10,14.0,18.0,64,-99.99,,,-99.99,,2013-02-01 23:21:00,
2013-02-01 17:32:00,10.0,0.0,-100.00,North,10,14.0,18.0,64,-99.99,,,-99.99,,2013-02-01 23:32:00,
2013-02-01 17:42:00,10.0,1.0,-100.00,North,10,11.0,19.0,66,-99.99,,,-99.99,,2013-02-01 23:42:00,
2013-02-01 17:52:00,9.0,0.0,-100.00,North,10,10.0,17.0,66,-99.99,,,-99.99,,2013-02-01 23:52:00,
2013-02-01 18:02:00,9.0,0.0,-100.00,North,10,10.0,17.0,66,-99.99,,,-99.99,,2013-02-02 00:02:00,
2013-02-01 18:11:00,9.0,0.0,-100.00,North,10,11.0,14.0,67,-99.99,,,-99.99,,2013-02-02 00:11:00,
2013-02-01 18:21:00,9.0,1.0,-100.00,North,5,8.0,14.0,68,-99.99,,,-99.99,,2013-02-02 00:21:00,
2013-02-01 18:32:00,9.0,1.0,-100.00,North,5,8.0,14.0,68,-99.99,,,-99.99,,2013-02-02 00:32:00,
2013-02-01 18:42:00,9.0,1.0,-100.00,North,10,6.0,11.0,69,-99.99,,,-99.99,,2013-02-02 00:42:00,
2013-02-01 18:52:00,10.0,2.0,-100.00,North,5,9.0,14.0,69,-99.99,,,-99.99,,2013-02-02 00:52:00,
2013-02-01 19:02:00,10.0,2.0,-100.00,North,5,9.0,14.0,69,-99.99,,,-99.99,,2013-02-02 01:02:00,
2013-02-01 19:11:00,11.0,2.0,-100.00,North,5,10.0,14.0,67,-99.99,,,-99.99,,2013-02-02 01:11:00,
2013-02-01 19:21:00,11.0,2.0,-100.00,North,5,11.0,16.0,66,-99.99,,,-99.99,,2013-02-02 01:21:00,
2013-02-01 19:32:00,11.0,2.0,-100.00,North,5,11.0,16.0,66,-99.99,,,-99.99,,2013-02-02 01:32:00,
2013-02-01 19:42:00,12.0,3.0,-100.00,North,5,13.0,16.0,67,-99.99,,,-99.99,,2013-02-02 01:42:00,
2013-02-01 19:52:00,12.0,3.0,-100.00,North,5,11.0,15.0,67,-99.99,,,-99.99,,2013-02-02 01:52:00,
2013-02-01 20:01:00,12.0,3.0,-100.00,North,5,11.0,15.0,67,-99.99,,,-99.99,,2013-02-02 02:01:00,
2013-02-01 20:11:00,12.0,4.0,-100.00,North,5,11.0,16.0,68,-99.99,,,-99.99,,2013-02-02 02:11:00,
2013-02-01 20:21:00,13.0,4.0,-100.00,North,5,14.0,16.0,68,-99.99,,,-99.99,,2013-02-02 02:21:00,
2013-02-01 20:32:00,13.0,4.0,-100.00,North,5,14.0,16.0,68,-99.99,,,-99.99,,2013-02-02 02:32:00,
2013-02-01 20:42:00,13.0,5.0,-100.00,North,5,9.0,18.0,68,-99.99,,,-99.99,,2013-02-02 02:42:00,
2013-02-01 20:52:00,14.0,5.0,-100.00,North,5,11.0,16.0,68,-99.99,,,-99.99,,2013-02-02 02:52:00,
2013-02-01 21:02:00,14.0,5.0,-100.00,North,5,11.0,16.0,68,-99.99,,,-99.99,,2013-02-02 03:02:00,
2013-02-01 21:11:00,14.0,5.0,-100.00,North,5,10.0,17.0,68,-99.99,,,-99.99,,2013-02-02 03:11:00,
2013-02-01 21:22:00,14.0,6.0,-100.00,North,5,11.0,14.0,69,-99.99,,,-99.99,,2013-02-02 03:22:00,
2013-02-01 21:32:00,14.0,6.0,-100.00,North,5,11.0,14.0,69,-99.99,,,-99.99,,2013-02-02 03:32:00,
2013-02-01 21:42:00,15.0,6.0,-100.00,North,5,11.0,16.0,69,-99.99,,,-99.99,,2013-02-02 03:42:00,
2013-02-01 21:52:00,15.0,7.0,-100.00,North,5,11.0,19.0,69,-99.99,,,-99.99,,2013-02-02 03:52:00,
2013-02-01 22:01:00,15.0,7.0,-100.00,North,5,11.0,19.0,69,-99.99,,,-99.99,,2013-02-02 04:01:00,
2013-02-01 22:11:00,15.0,7.0,-100.00,North,10,10.0,14.0,71,-99.99,,,-99.99,,2013-02-02 04:11:00,
2013-02-01 22:21:00,15.0,8.0,-100.00,North,5,10.0,14.0,73,-99.99,,,-99.99,,2013-02-02 04:21:00,
2013-02-01 22:32:00,15.0,9.0,-100.00,North,5,11.0,14.0,75,-99.99,,,-99.99,,2013-02-02 04:32:00,
2013-02-01 22:42:00,15.0,9.0,-100.00,North,5,11.0,14.0,75,-99.99,,,-99.99,,2013-02-02 04:42:00,
2013-02-01 22:52:00,15.0,9.0,-100.00,North,5,9.0,11.0,78,-99.99,,,-99.99,,2013-02-02 04:52:00,
2013-02-01 23:03:00,15.0,9.0,-100.00,North,5,9.0,11.0,78,-99.99,,,-99.99,,2013-02-02 05:03:00,
2013-02-01 23:12:00,15.0,10.0,-100.00,North,10,6.0,11.0,79,-99.99,,,-99.99,,2013-02-02 05:12:00,
2013-02-01 23:22:00,15.0,10.0,-100.00,North,5,4.0,11.0,81,-99.99,,,-99.99,,2013-02-02 05:22:00,
2013-02-01 23:33:00,15.0,10.0,-100.00,North,5,6.0,10.0,82,-99.99,,,-99.99,,2013-02-02 05:33:00,
2013-02-01 23:41:00,15.0,10.0,-100.00,North,5,6.0,10.0,82,-99.99,,,-99.99,,2013-02-02 05:41:00,
2013-02-01 23:52:00,15.0,11.0,-100.00,North,10,9.0,11.0,84,-99.99,,,-99.99,,2013-02-02 05:52:00,